Location: Écuvilly
(49.6505°N, 2.9206°E)
Time: 06:46:02
(UTC+00:00)

AQUARIUS - Pass Details

Date: 17 November 2025
Orbit: 634 x 636 km, 98.0° (Epoch: 10 December)

Event Time Altitude Azimuth Distance (km) Brightness Sun altitude
Rises 17:20:21 0° 161° (SSE) 2,923 7.5 -12.4°
Reaches altitude 10° 17:22:32 10° 161° (SSE) 2,019 6.6 -12.8°
Maximum altitude 17:26:56 81° 75° (ENE) 651 4.0 -13.5°
Drops below altitude 10° 17:31:22 10° 348° (NNW) 2,033 6.7 -14.2°
Sets 17:33:35 0° 347° (NNW) 2,946 7.5 -14.5°
